sat.trackr.live / text

‹ back to catalog

ONEWEB-0514

NORAD 54132 · 2022-138V

PAYLOAD ACTIVE UNKNOWN

§ Identity

Operator
Country
UK
Launch date
2022-10-22
Launch site
SRILR
Launch vehicle
Mass (kg)
RCS (m²)

Purposes: comms

External: N2YO · Heavens-Above · Gunter

§ Orbital elements

Epoch: 2026-05-24T23:20:28.689792Z

Period
109.11 min
Inclination
87.9160°
Eccentricity
0.0001905
Mean motion
13.19726193 rev/d
Perigee alt
1,184.3 km
Apogee alt
1,187.2 km
Semi-major
7,563.9 km
B*
2.4334e-5
RAAN
309.5924°
Arg perigee
96.5819°
Mean anomaly
263.5530°
Rev number
17,376

§ Raw data

ONEWEB-05141 54132U 22138V   26144.97255428  .00000023  00000+0  24334-4 0  99942 54132  87.9160 309.5924 0001905  96.5819 263.5530 13.19726193173763

JSON: /api/v1/satellites/54132 · /tle

For live sub-satellite position, see the globe view (requires WebGL).

§ Visibility from observer

Set your observer location to see the next 7 days of passes ≥ 10°. The values pass through the URL so the page stays shareable.

No JS? Fill the form by hand. The geolocation button needs JavaScript.